contact:dominique.lefevre@mio.osupytheas.fr, maurice.libes@osupytheas.fr, didier.mallarino@osupytheas.fr
Project:EMSO http://www.emso-fr.org/EMSO-France
Depth: 2436.0 m
Title:EMSO Ligure Ouest : Data MII capteur MICROCAT
DateTime_Computer,Latitude,Longitude,Temperature,Conductivity,Pressure,DateTime_Instrument
DateTime_Computer,Latitude,Longitude,degC,S m-1,dbar,DateTime_Instrument
2022-02-08T00:00:40Z,42.805,6.029,13.2998,4.60031,2470.171,2022-2-08T02:02:13Z
2022-02-08T00:03:43Z,42.805,6.029,13.2995,4.60029,2470.171,2022-2-08T02:05:16Z
2022-02-08T00:06:46Z,42.805,6.029,13.2998,4.60029,2470.156,2022-2-08T02:08:19Z
2022-02-08T00:09:49Z,42.805,6.029,13.2996,4.60028,2470.133,2022-2-08T02:11:22Z
2022-02-08T00:12:52Z,42.805,6.029,13.2996,4.60029,2470.133,2022-2-08T02:14:25Z
2022-02-08T00:15:55Z,42.805,6.029,13.2996,4.60032,2470.147,2022-2-08T02:17:28Z
2022-02-08T00:18:58Z,42.805,6.029,13.2996,4.60031,2470.156,2022-2-08T02:20:31Z
2022-02-08T00:22:01Z,42.805,6.029,13.3001,4.60030,2470.133,2022-2-08T02:23:34Z
2022-02-08T00:25:05Z,42.805,6.029,13.3000,4.60028,2470.133,2022-2-08T02:26:37Z
2022-02-08T00:28:08Z,42.805,6.029,13.2998,4.60028,2470.156,2022-2-08T02:29:41Z
2022-02-08T00:31:11Z,42.805,6.029,13.2998,4.60030,2470.171,2022-2-08T02:32:44Z
2022-02-08T00:34:14Z,42.805,6.029,13.2997,4.60028,2470.18,2022-2-08T02:35:47Z
2022-02-08T00:37:17Z,42.805,6.029,13.3000,4.60035,2470.156,2022-2-08T02:38:50Z
2022-02-08T00:40:20Z,42.805,6.029,13.3000,4.60034,2470.156,2022-2-08T02:41:53Z
2022-02-08T00:43:23Z,42.805,6.029,13.3000,4.60031,2470.18,2022-2-08T02:44:56Z
2022-02-08T00:46:26Z,42.805,6.029,13.2999,4.60030,2470.18,2022-2-08T02:47:59Z
2022-02-08T00:49:29Z,42.805,6.029,13.2998,4.60031,2470.18,2022-2-08T02:51:02Z
2022-02-08T00:52:33Z,42.805,6.029,13.2996,4.60044,2470.203,2022-2-08T02:54:06Z
2022-02-08T00:55:36Z,42.805,6.029,13.3000,4.60034,2470.147,2022-2-08T02:57:09Z
2022-02-08T00:58:39Z,42.805,6.029,13.3000,4.60031,2470.156,2022-2-08T03:00:12Z
2022-02-08T01:01:42Z,42.805,6.029,13.2998,4.60038,2470.11,2022-2-08T03:03:15Z
2022-02-08T01:04:45Z,42.805,6.029,13.2997,4.60044,2470.147,2022-2-08T03:06:18Z
2022-02-08T01:07:48Z,42.805,6.029,13.2997,4.60066,2470.11,2022-2-08T03:09:21Z
2022-02-08T01:10:51Z,42.805,6.029,13.3000,4.60057,2470.119,2022-2-08T03:12:24Z
2022-02-08T01:13:54Z,42.805,6.029,13.3000,4.60091,2470.133,2022-2-08T03:15:27Z
2022-02-08T01:16:58Z,42.805,6.029,13.3001,4.60104,2470.133,2022-2-08T03:18:30Z
2022-02-08T01:20:01Z,42.805,6.029,13.3014,4.60103,2470.124,2022-2-08T03:21:34Z
2022-02-08T01:23:04Z,42.805,6.029,13.3043,4.60114,2470.11,2022-2-08T03:24:37Z
2022-02-08T01:26:07Z,42.805,6.029,13.3032,4.60084,2470.087,2022-2-08T03:27:40Z
2022-02-08T01:29:10Z,42.805,6.029,13.3057,4.60109,2470.11,2022-2-08T03:30:43Z
2022-02-08T01:32:13Z,42.805,6.029,13.3100,4.60072,2470.133,2022-2-08T03:33:46Z
2022-02-08T01:35:16Z,42.805,6.029,13.3089,4.60070,2470.11,2022-2-08T03:36:49Z
2022-02-08T01:38:19Z,42.805,6.029,13.3061,4.60060,2470.1,2022-2-08T03:39:52Z
2022-02-08T01:41:22Z,42.805,6.029,13.3075,4.60057,2470.133,2022-2-08T03:42:55Z
2022-02-08T01:44:26Z,42.805,6.029,13.3067,4.60062,2470.133,2022-2-08T03:45:59Z
2022-02-08T01:47:29Z,42.805,6.029,13.3078,4.60057,2470.11,2022-2-08T03:49:02Z
2022-02-08T01:50:32Z,42.805,6.029,13.3056,4.60059,2470.1,2022-2-08T03:52:05Z
2022-02-08T01:53:35Z,42.805,6.029,13.3084,4.60112,2470.124,2022-2-08T03:55:08Z
2022-02-08T01:56:38Z,42.805,6.029,13.3051,4.60087,2470.11,2022-2-08T03:58:11Z
2022-02-08T01:59:41Z,42.805,6.029,13.3044,4.60073,2470.124,2022-2-08T04:01:14Z
2022-02-08T02:02:44Z,42.805,6.029,13.3064,4.60058,2470.133,2022-2-08T04:04:17Z
2022-02-08T02:05:47Z,42.805,6.029,13.3055,4.60070,2470.087,2022-2-08T04:07:20Z
2022-02-08T02:08:51Z,42.805,6.029,13.3047,4.60069,2470.1,2022-2-08T04:10:23Z
2022-02-08T02:11:54Z,42.805,6.029,13.3032,4.60079,2470.11,2022-2-08T04:13:27Z
2022-02-08T02:14:57Z,42.805,6.029,13.3047,4.60081,2470.124,2022-2-08T04:16:30Z
2022-02-08T02:18:00Z,42.805,6.029,13.3061,4.60071,2470.133,2022-2-08T04:19:33Z
2022-02-08T02:21:03Z,42.805,6.029,13.3059,4.60069,2470.1,2022-2-08T04:22:36Z
2022-02-08T02:24:06Z,42.805,6.029,13.3039,4.60062,2470.124,2022-2-08T04:25:39Z
2022-02-08T02:27:09Z,42.805,6.029,13.3063,4.60075,2470.1,2022-2-08T04:28:42Z
2022-02-08T02:30:12Z,42.805,6.029,13.3048,4.60068,2470.133,2022-2-08T04:31:45Z
2022-02-08T02:33:15Z,42.805,6.029,13.3048,4.60078,2470.133,2022-2-08T04:34:48Z
2022-02-08T02:36:19Z,42.805,6.029,13.3047,4.60065,2470.124,2022-2-08T04:37:52Z
2022-02-08T02:39:22Z,42.805,6.029,13.3058,4.60067,2470.133,2022-2-08T04:40:55Z
2022-02-08T02:42:25Z,42.805,6.029,13.3056,4.60070,2470.124,2022-2-08T04:43:58Z
2022-02-08T02:45:28Z,42.805,6.029,13.3048,4.60070,2470.124,2022-2-08T04:47:01Z
2022-02-08T02:48:31Z,42.805,6.029,13.3043,4.60067,2470.124,2022-2-08T04:50:04Z
2022-02-08T02:51:34Z,42.805,6.029,13.3054,4.60072,2470.147,2022-2-08T04:53:07Z
2022-02-08T02:54:37Z,42.805,6.029,13.3049,4.60057,2470.156,2022-2-08T04:56:10Z
2022-02-08T02:57:40Z,42.805,6.029,13.3050,4.60064,2470.133,2022-2-08T04:59:13Z
2022-02-08T03:00:44Z,42.805,6.029,13.3041,4.60066,2470.11,2022-2-08T05:02:17Z
2022-02-08T03:03:47Z,42.805,6.029,13.3042,4.60064,2470.133,2022-2-08T05:05:20Z
2022-02-08T03:06:50Z,42.805,6.029,13.3056,4.60060,2470.11,2022-2-08T05:08:23Z
2022-02-08T03:09:53Z,42.805,6.029,13.3028,4.60072,2470.171,2022-2-08T05:11:26Z
2022-02-08T03:12:56Z,42.805,6.029,13.3031,4.60062,2470.133,2022-2-08T05:14:29Z
2022-02-08T03:15:59Z,42.805,6.029,13.3041,4.60054,2470.133,2022-2-08T05:17:32Z
2022-02-08T03:19:02Z,42.805,6.029,13.3031,4.60041,2470.171,2022-2-08T05:20:35Z
2022-02-08T03:22:05Z,42.805,6.029,13.3031,4.60056,2470.133,2022-2-08T05:23:38Z
2022-02-08T03:25:08Z,42.805,6.029,13.3021,4.60053,2470.124,2022-2-08T05:26:41Z
2022-02-08T03:28:12Z,42.805,6.029,13.3035,4.60043,2470.156,2022-2-08T05:29:45Z
2022-02-08T03:31:15Z,42.805,6.029,13.3016,4.60039,2470.156,2022-2-08T05:32:48Z
2022-02-08T03:34:18Z,42.805,6.029,13.3026,4.60050,2470.133,2022-2-08T05:35:51Z
2022-02-08T03:37:21Z,42.805,6.029,13.3026,4.60054,2470.124,2022-2-08T05:38:54Z
2022-02-08T03:40:24Z,42.805,6.029,13.3048,4.60059,2470.133,2022-2-08T05:41:57Z
2022-02-08T03:43:27Z,42.805,6.029,13.3044,4.60066,2470.11,2022-2-08T05:45:00Z
2022-02-08T03:46:30Z,42.805,6.029,13.3029,4.60053,2470.133,2022-2-08T05:48:03Z
2022-02-08T03:49:33Z,42.805,6.029,13.3027,4.60067,2470.156,2022-2-08T05:51:06Z
2022-02-08T03:52:37Z,42.805,6.029,13.3043,4.60054,2470.156,2022-2-08T05:54:10Z
2022-02-08T03:55:40Z,42.805,6.029,13.3043,4.60050,2470.156,2022-2-08T05:57:13Z
2022-02-08T03:58:43Z,42.805,6.029,13.3037,4.60054,2470.18,2022-2-08T06:00:16Z
2022-02-08T04:01:46Z,42.805,6.029,13.3033,4.60050,2470.147,2022-2-08T06:03:19Z
2022-02-08T04:04:49Z,42.805,6.029,13.3052,4.60062,2470.133,2022-2-08T06:06:22Z
2022-02-08T04:07:52Z,42.805,6.029,13.3043,4.60059,2470.156,2022-2-08T06:09:25Z
2022-02-08T04:10:55Z,42.805,6.029,13.3038,4.60062,2470.11,2022-2-08T06:12:28Z
2022-02-08T04:13:58Z,42.805,6.029,13.3031,4.60055,2470.133,2022-2-08T06:15:31Z
2022-02-08T04:17:01Z,42.805,6.029,13.3026,4.60053,2470.133,2022-2-08T06:18:34Z
2022-02-08T04:20:05Z,42.805,6.029,13.3025,4.60049,2470.133,2022-2-08T06:21:38Z
2022-02-08T04:23:08Z,42.805,6.029,13.3038,4.60054,2470.147,2022-2-08T06:24:41Z
2022-02-08T04:26:11Z,42.805,6.029,13.3036,4.60058,2470.133,2022-2-08T06:27:44Z
2022-02-08T04:29:14Z,42.805,6.029,13.3029,4.60062,2470.147,2022-2-08T06:30:47Z
2022-02-08T04:32:17Z,42.805,6.029,13.3031,4.60057,2470.171,2022-2-08T06:33:50Z
2022-02-08T04:35:20Z,42.805,6.029,13.3038,4.60054,2470.171,2022-2-08T06:36:53Z
2022-02-08T04:38:23Z,42.805,6.029,13.3034,4.60056,2470.147,2022-2-08T06:39:56Z
2022-02-08T04:41:26Z,42.805,6.029,13.3033,4.60057,2470.133,2022-2-08T06:42:59Z
2022-02-08T04:44:30Z,42.805,6.029,13.3044,4.60052,2470.11,2022-2-08T06:46:02Z
2022-02-08T04:47:33Z,42.805,6.029,13.3026,4.60049,2470.156,2022-2-08T06:49:06Z
2022-02-08T04:50:36Z,42.805,6.029,13.3033,4.60068,2470.171,2022-2-08T06:52:09Z
2022-02-08T04:53:39Z,42.805,6.029,13.3034,4.60055,2470.171,2022-2-08T06:55:12Z
2022-02-08T04:56:42Z,42.805,6.029,13.3043,4.60060,2470.147,2022-2-08T06:58:15Z
2022-02-08T04:59:45Z,42.805,6.029,13.3025,4.60055,2470.133,2022-2-08T07:01:18Z
2022-02-08T05:02:48Z,42.805,6.029,13.3036,4.60051,2470.087,2022-2-08T07:04:21Z
2022-02-08T05:05:51Z,42.805,6.029,13.3025,4.60054,2470.11,2022-2-08T07:07:24Z
2022-02-08T05:08:54Z,42.805,6.029,13.3035,4.60047,2470.133,2022-2-08T07:10:27Z
2022-02-08T05:11:58Z,42.805,6.029,13.3027,4.60052,2470.18,2022-2-08T07:13:31Z
2022-02-08T05:15:01Z,42.805,6.029,13.3028,4.60055,2470.171,2022-2-08T07:16:34Z
2022-02-08T05:18:04Z,42.805,6.029,13.3029,4.60062,2470.133,2022-2-08T07:19:37Z
2022-02-08T05:21:07Z,42.805,6.029,13.3032,4.60049,2470.133,2022-2-08T07:22:40Z
2022-02-08T05:24:10Z,42.805,6.029,13.3046,4.60052,2470.171,2022-2-08T07:25:43Z
2022-02-08T05:27:13Z,42.805,6.029,13.3041,4.60053,2470.133,2022-2-08T07:28:46Z
2022-02-08T05:30:16Z,42.805,6.029,13.3021,4.60038,2470.171,2022-2-08T07:31:49Z
2022-02-08T05:33:19Z,42.805,6.029,13.3021,4.60045,2470.171,2022-2-08T07:34:52Z
2022-02-08T05:36:23Z,42.805,6.029,13.3024,4.60051,2470.124,2022-2-08T07:37:56Z
2022-02-08T05:39:26Z,42.805,6.029,13.3034,4.60053,2470.156,2022-2-08T07:40:59Z
2022-02-08T05:42:29Z,42.805,6.029,13.3029,4.60046,2470.171,2022-2-08T07:44:02Z
2022-02-08T05:45:32Z,42.805,6.029,13.3022,4.60061,2470.133,2022-2-08T07:47:05Z
2022-02-08T05:48:35Z,42.805,6.029,13.3033,4.60062,2470.133,2022-2-08T07:50:08Z
2022-02-08T05:51:38Z,42.805,6.029,13.3031,4.60057,2470.11,2022-2-08T07:53:11Z
2022-02-08T05:54:41Z,42.805,6.029,13.3032,4.60058,2470.11,2022-2-08T07:56:14Z
2022-02-08T05:57:44Z,42.805,6.029,13.3026,4.60046,2470.194,2022-2-08T07:59:17Z
2022-02-08T06:00:47Z,42.805,6.029,13.3026,4.60064,2470.133,2022-2-08T08:02:20Z
2022-02-08T06:03:51Z,42.805,6.029,13.3037,4.60055,2470.156,2022-2-08T08:05:24Z
2022-02-08T06:06:54Z,42.805,6.029,13.3027,4.60046,2470.171,2022-2-08T08:08:27Z
2022-02-08T06:09:57Z,42.805,6.029,13.3025,4.60054,2470.147,2022-2-08T08:11:30Z
2022-02-08T06:13:00Z,42.805,6.029,13.3028,4.60049,2470.156,2022-2-08T08:14:33Z
2022-02-08T06:16:03Z,42.805,6.029,13.3029,4.60053,2470.18,2022-2-08T08:17:36Z
2022-02-08T06:19:06Z,42.805,6.029,13.3031,4.60049,2470.156,2022-2-08T08:20:39Z
2022-02-08T06:22:09Z,42.805,6.029,13.3031,4.60050,2470.156,2022-2-08T08:23:42Z
2022-02-08T06:25:12Z,42.805,6.029,13.3033,4.60056,2470.171,2022-2-08T08:26:45Z
2022-02-08T06:28:16Z,42.805,6.029,13.3029,4.60045,2470.156,2022-2-08T08:29:49Z
2022-02-08T06:31:19Z,42.805,6.029,13.3020,4.60046,2470.217,2022-2-08T08:32:52Z
2022-02-08T06:34:22Z,42.805,6.029,13.3029,4.60045,2470.133,2022-2-08T08:35:55Z
2022-02-08T06:37:25Z,42.805,6.029,13.3035,4.60053,2470.194,2022-2-08T08:38:58Z
2022-02-08T06:40:28Z,42.805,6.029,13.3032,4.60055,2470.124,2022-2-08T08:42:01Z
2022-02-08T06:43:31Z,42.805,6.029,13.3038,4.60049,2470.156,2022-2-08T08:45:04Z
2022-02-08T06:46:34Z,42.805,6.029,13.3029,4.60050,2470.171,2022-2-08T08:48:07Z
2022-02-08T06:49:37Z,42.805,6.029,13.3031,4.60055,2470.194,2022-2-08T08:51:10Z
2022-02-08T06:52:40Z,42.805,6.029,13.3039,4.60055,2470.156,2022-2-08T08:54:13Z
2022-02-08T06:55:44Z,42.805,6.029,13.3026,4.60053,2470.133,2022-2-08T08:57:17Z
2022-02-08T06:58:47Z,42.805,6.029,13.3039,4.60046,2470.18,2022-2-08T09:00:20Z
2022-02-08T07:01:50Z,42.805,6.029,13.3032,4.60046,2470.156,2022-2-08T09:03:23Z
2022-02-08T07:04:53Z,42.805,6.029,13.3027,4.60051,2470.18,2022-2-08T09:06:26Z
2022-02-08T07:07:56Z,42.805,6.029,13.3054,4.60052,2470.194,2022-2-08T09:09:29Z
2022-02-08T07:10:59Z,42.805,6.029,13.3029,4.60044,2470.18,2022-2-08T09:12:32Z
2022-02-08T07:14:02Z,42.805,6.029,13.3024,4.60052,2470.171,2022-2-08T09:15:35Z
2022-02-08T07:17:05Z,42.805,6.029,13.3041,4.60056,2470.18,2022-2-08T09:18:38Z
2022-02-08T07:20:09Z,42.805,6.029,13.3033,4.60074,2470.156,2022-2-08T09:21:42Z
2022-02-08T07:23:12Z,42.805,6.029,13.3031,4.60074,2470.194,2022-2-08T09:24:45Z
2022-02-08T07:26:15Z,42.805,6.029,13.3042,4.60058,2470.18,2022-2-08T09:27:48Z
2022-02-08T07:29:18Z,42.805,6.029,13.3034,4.60069,2470.194,2022-2-08T09:30:51Z
2022-02-08T07:32:21Z,42.805,6.029,13.3035,4.60072,2470.156,2022-2-08T09:33:54Z
2022-02-08T07:35:24Z,42.805,6.029,13.3041,4.60048,2470.18,2022-2-08T09:36:57Z
2022-02-08T07:38:27Z,42.805,6.029,13.3032,4.60062,2470.217,2022-2-08T09:40:00Z
2022-02-08T07:41:30Z,42.805,6.029,13.3041,4.60054,2470.203,2022-2-08T09:43:03Z
2022-02-08T07:44:33Z,42.805,6.029,13.3040,4.60089,2470.18,2022-2-08T09:46:06Z
2022-02-08T07:47:37Z,42.805,6.029,13.3027,4.60070,2470.203,2022-2-08T09:49:10Z
2022-02-08T07:50:40Z,42.805,6.029,13.3043,4.60056,2470.194,2022-2-08T09:52:13Z
2022-02-08T07:53:43Z,42.805,6.029,13.3025,4.60065,2470.203,2022-2-08T09:55:16Z
2022-02-08T07:56:46Z,42.805,6.029,13.3036,4.60054,2470.217,2022-2-08T09:58:19Z
2022-02-08T07:59:49Z,42.805,6.029,13.3029,4.60046,2470.203,2022-2-08T10:01:22Z
2022-02-08T08:02:52Z,42.805,6.029,13.3027,4.60057,2470.18,2022-2-08T10:04:25Z
2022-02-08T08:05:55Z,42.805,6.029,13.3036,4.60052,2470.18,2022-2-08T10:07:28Z
2022-02-08T08:08:58Z,42.805,6.029,13.3022,4.60060,2470.18,2022-2-08T10:10:31Z
2022-02-08T08:12:02Z,42.805,6.029,13.3036,4.60071,2470.133,2022-2-08T10:13:35Z
2022-02-08T08:15:05Z,42.805,6.029,13.3004,4.60114,2470.194,2022-2-08T10:16:38Z
2022-02-08T08:18:08Z,42.805,6.029,13.3005,4.60068,2470.227,2022-2-08T10:19:41Z
2022-02-08T08:21:11Z,42.805,6.029,13.3003,4.60057,2470.203,2022-2-08T10:22:44Z
2022-02-08T08:24:14Z,42.805,6.029,13.3004,4.60077,2470.217,2022-2-08T10:25:47Z
2022-02-08T08:27:17Z,42.805,6.029,13.3007,4.60079,2470.194,2022-2-08T10:28:50Z
2022-02-08T08:30:20Z,42.805,6.029,13.3009,4.60082,2470.18,2022-2-08T10:31:53Z
2022-02-08T08:33:23Z,42.805,6.029,13.3005,4.60064,2470.24,2022-2-08T10:34:56Z
2022-02-08T08:36:27Z,42.805,6.029,13.3008,4.60076,2470.24,2022-2-08T10:38:00Z
2022-02-08T08:39:30Z,42.805,6.029,13.3020,4.60075,2470.24,2022-2-08T10:41:03Z
2022-02-08T08:42:33Z,42.805,6.029,13.3082,4.60081,2470.25,2022-2-08T10:44:06Z
2022-02-08T08:45:36Z,42.805,6.029,13.3075,4.60080,2470.227,2022-2-08T10:47:09Z
2022-02-08T08:48:39Z,42.805,6.029,13.3062,4.60092,2470.227,2022-2-08T10:50:12Z
2022-02-08T08:51:42Z,42.805,6.029,13.3072,4.60095,2470.227,2022-2-08T10:53:15Z
2022-02-08T08:54:45Z,42.805,6.029,13.3077,4.60068,2470.227,2022-2-08T10:56:18Z
2022-02-08T08:57:48Z,42.805,6.029,13.3082,4.60064,2470.217,2022-2-08T10:59:21Z
2022-02-08T09:00:52Z,42.805,6.029,13.3063,4.60078,2470.24,2022-2-08T11:02:25Z
2022-02-08T09:03:55Z,42.805,6.029,13.3086,4.60067,2470.227,2022-2-08T11:05:28Z
2022-02-08T09:06:58Z,42.805,6.029,13.3085,4.60097,2470.24,2022-2-08T11:08:31Z
2022-02-08T09:10:01Z,42.805,6.029,13.3079,4.60104,2470.287,2022-2-08T11:11:34Z
2022-02-08T09:13:04Z,42.805,6.029,13.3026,4.60095,2470.203,2022-2-08T11:14:37Z
2022-02-08T09:16:07Z,42.805,6.029,13.3048,4.60083,2470.25,2022-2-08T11:17:40Z
2022-02-08T09:19:10Z,42.805,6.029,13.3060,4.60099,2470.24,2022-2-08T11:20:43Z
2022-02-08T09:22:13Z,42.805,6.029,13.3055,4.60095,2470.25,2022-2-08T11:23:46Z
2022-02-08T09:25:17Z,42.805,6.029,13.3039,4.60077,2470.264,2022-2-08T11:26:50Z
2022-02-08T09:28:20Z,42.805,6.029,13.3079,4.60053,2470.24,2022-2-08T11:29:53Z
2022-02-08T09:31:23Z,42.805,6.029,13.3035,4.60104,2470.24,2022-2-08T11:32:56Z
2022-02-08T09:34:26Z,42.805,6.029,13.3013,4.60099,2470.203,2022-2-08T11:35:59Z
2022-02-08T09:37:29Z,42.805,6.029,13.3014,4.60068,2470.24,2022-2-08T11:39:02Z
2022-02-08T09:40:32Z,42.805,6.029,13.3010,4.60050,2470.227,2022-2-08T11:42:05Z
2022-02-08T09:43:35Z,42.805,6.029,13.3008,4.60081,2470.24,2022-2-08T11:45:08Z
2022-02-08T09:46:38Z,42.805,6.029,13.3011,4.60077,2470.217,2022-2-08T11:48:11Z
2022-02-08T09:49:42Z,42.805,6.029,13.3007,4.60059,2470.25,2022-2-08T11:51:15Z
2022-02-08T09:52:45Z,42.805,6.029,13.3021,4.60078,2470.227,2022-2-08T11:54:18Z
2022-02-08T09:55:48Z,42.805,6.029,13.3043,4.60072,2470.24,2022-2-08T11:57:21Z
2022-02-08T09:58:51Z,42.805,6.029,13.3039,4.60102,2470.264,2022-2-08T12:00:24Z
2022-02-08T10:01:54Z,42.805,6.029,13.3034,4.60054,2470.25,2022-2-08T12:03:27Z
2022-02-08T10:04:57Z,42.805,6.029,13.3054,4.60084,2470.227,2022-2-08T12:06:30Z
2022-02-08T10:08:00Z,42.805,6.029,13.3042,4.60062,2470.264,2022-2-08T12:09:33Z
2022-02-08T10:11:03Z,42.805,6.029,13.3014,4.60055,2470.264,2022-2-08T12:12:36Z
2022-02-08T10:14:06Z,42.805,6.029,13.3013,4.60057,2470.264,2022-2-08T12:15:39Z
2022-02-08T10:17:10Z,42.805,6.029,13.3004,4.60044,2470.264,2022-2-08T12:18:43Z
2022-02-08T10:20:13Z,42.805,6.029,13.3006,4.60050,2470.25,2022-2-08T12:21:46Z
2022-02-08T10:23:16Z,42.805,6.029,13.3009,4.60041,2470.297,2022-2-08T12:24:49Z
2022-02-08T10:26:19Z,42.805,6.029,13.3009,4.60041,2470.287,2022-2-08T12:27:52Z
2022-02-08T10:29:22Z,42.805,6.029,13.3010,4.60039,2470.273,2022-2-08T12:30:55Z
2022-02-08T10:32:25Z,42.805,6.029,13.3007,4.60044,2470.227,2022-2-08T12:33:58Z
2022-02-08T10:35:28Z,42.805,6.029,13.3006,4.60039,2470.273,2022-2-08T12:37:01Z
2022-02-08T10:38:31Z,42.805,6.029,13.3006,4.60040,2470.273,2022-2-08T12:40:04Z
2022-02-08T10:41:35Z,42.805,6.029,13.3005,4.60037,2470.297,2022-2-08T12:43:08Z
2022-02-08T10:44:38Z,42.805,6.029,13.3022,4.60075,2470.283,2022-2-08T12:46:11Z
2022-02-08T10:47:41Z,42.805,6.029,13.3036,4.60070,2470.297,2022-2-08T12:49:14Z
2022-02-08T10:50:44Z,42.805,6.029,13.3046,4.60066,2470.334,2022-2-08T12:52:17Z
2022-02-08T10:53:47Z,42.805,6.029,13.3039,4.60075,2470.273,2022-2-08T12:55:20Z
2022-02-08T10:56:50Z,42.805,6.029,13.3047,4.60101,2470.32,2022-2-08T12:58:23Z
2022-02-08T10:59:53Z,42.805,6.029,13.3026,4.60097,2470.32,2022-2-08T13:01:26Z
2022-02-08T11:02:56Z,42.805,6.029,13.3034,4.60066,2470.334,2022-2-08T13:04:29Z
2022-02-08T11:06:00Z,42.805,6.029,13.3019,4.60069,2470.334,2022-2-08T13:07:33Z
2022-02-08T11:09:03Z,42.805,6.029,13.3015,4.60081,2470.31,2022-2-08T13:10:36Z
2022-02-08T11:12:06Z,42.805,6.029,13.3012,4.60079,2470.32,2022-2-08T13:13:39Z
2022-02-08T11:15:09Z,42.805,6.029,13.3021,4.60072,2470.287,2022-2-08T13:16:42Z
2022-02-08T11:18:12Z,42.805,6.029,13.3006,4.60073,2470.32,2022-2-08T13:19:45Z
2022-02-08T11:21:15Z,42.805,6.029,13.3005,4.60058,2470.32,2022-2-08T13:22:48Z
2022-02-08T11:24:18Z,42.805,6.029,13.3005,4.60052,2470.357,2022-2-08T13:25:51Z
2022-02-08T11:27:21Z,42.805,6.029,13.3012,4.60049,2470.32,2022-2-08T13:28:54Z
2022-02-08T11:30:25Z,42.805,6.029,13.3006,4.60052,2470.334,2022-2-08T13:31:58Z
2022-02-08T11:33:28Z,42.805,6.029,13.3006,4.60064,2470.334,2022-2-08T13:35:01Z
2022-02-08T11:36:31Z,42.805,6.029,13.3015,4.60062,2470.334,2022-2-08T13:38:04Z
2022-02-08T11:39:34Z,42.805,6.029,13.3015,4.60056,2470.297,2022-2-08T13:41:07Z
2022-02-08T11:42:37Z,42.805,6.029,13.3006,4.60062,2470.32,2022-2-08T13:44:10Z
2022-02-08T11:45:40Z,42.805,6.029,13.3009,4.60060,2470.297,2022-2-08T13:47:13Z
2022-02-08T11:48:43Z,42.805,6.029,13.3004,4.60052,2470.334,2022-2-08T13:50:16Z
2022-02-08T11:51:46Z,42.805,6.029,13.3008,4.60064,2470.31,2022-2-08T13:53:19Z
2022-02-08T11:54:50Z,42.805,6.029,13.3006,4.60057,2470.334,2022-2-08T13:56:23Z
2022-02-08T11:57:53Z,42.805,6.029,13.3010,4.60070,2470.32,2022-2-08T13:59:26Z
2022-02-08T12:00:56Z,42.805,6.029,13.3011,4.60057,2470.297,2022-2-08T14:02:29Z
2022-02-08T12:03:59Z,42.805,6.029,13.3008,4.60069,2470.31,2022-2-08T14:05:32Z
2022-02-08T12:07:02Z,42.805,6.029,13.3005,4.60067,2470.32,2022-2-08T14:08:35Z
2022-02-08T12:10:05Z,42.805,6.029,13.3003,4.60057,2470.343,2022-2-08T14:11:38Z
2022-02-08T12:13:08Z,42.805,6.029,13.3009,4.60052,2470.31,2022-2-08T14:14:41Z
2022-02-08T12:16:11Z,42.805,6.029,13.3000,4.60052,2470.334,2022-2-08T14:17:44Z
2022-02-08T12:19:15Z,42.805,6.029,13.3004,4.60074,2470.297,2022-2-08T14:20:48Z
2022-02-08T12:22:18Z,42.805,6.029,13.3006,4.60055,2470.334,2022-2-08T14:23:51Z
2022-02-08T12:25:21Z,42.805,6.029,13.3015,4.60076,2470.32,2022-2-08T14:26:54Z
2022-02-08T12:28:24Z,42.805,6.029,13.3014,4.60071,2470.32,2022-2-08T14:29:57Z
2022-02-08T12:31:27Z,42.805,6.029,13.3013,4.60072,2470.31,2022-2-08T14:33:00Z
2022-02-08T12:34:30Z,42.805,6.029,13.3008,4.60066,2470.32,2022-2-08T14:36:03Z
2022-02-08T12:37:33Z,42.805,6.029,13.3007,4.60080,2470.31,2022-2-08T14:39:06Z
2022-02-08T12:40:36Z,42.805,6.029,13.3012,4.60063,2470.334,2022-2-08T14:42:09Z
2022-02-08T12:43:40Z,42.805,6.029,13.3007,4.60064,2470.32,2022-2-08T14:45:13Z
2022-02-08T12:46:43Z,42.805,6.029,13.3004,4.60060,2470.357,2022-2-08T14:48:16Z
2022-02-08T12:49:46Z,42.805,6.029,13.3014,4.60071,2470.297,2022-2-08T14:51:19Z
2022-02-08T12:52:49Z,42.805,6.029,13.3010,4.60058,2470.334,2022-2-08T14:54:22Z
2022-02-08T12:55:52Z,42.805,6.029,13.3010,4.60062,2470.343,2022-2-08T14:57:25Z
2022-02-08T12:58:55Z,42.805,6.029,13.3008,4.60052,2470.297,2022-2-08T15:00:28Z
2022-02-08T13:01:58Z,42.805,6.029,13.3008,4.60052,2470.334,2022-2-08T15:03:31Z
2022-02-08T13:05:01Z,42.805,6.029,13.3006,4.60057,2470.334,2022-2-08T15:06:34Z
2022-02-08T13:08:04Z,42.805,6.029,13.3014,4.60059,2470.32,2022-2-08T15:09:37Z
2022-02-08T13:11:08Z,42.805,6.029,13.3009,4.60074,2470.32,2022-2-08T15:12:41Z
2022-02-08T13:14:11Z,42.805,6.029,13.3014,4.60059,2470.31,2022-2-08T15:15:44Z
2022-02-08T13:17:14Z,42.805,6.029,13.3023,4.60073,2470.31,2022-2-08T15:18:47Z
2022-02-08T13:20:17Z,42.805,6.029,13.3011,4.60082,2470.334,2022-2-08T15:21:50Z
2022-02-08T13:23:20Z,42.805,6.029,13.3006,4.60066,2470.26,2022-2-08T15:24:53Z
2022-02-08T13:26:23Z,42.805,6.029,13.3015,4.60081,2470.31,2022-2-08T15:27:56Z
2022-02-08T13:29:26Z,42.805,6.029,13.3013,4.60066,2470.273,2022-2-08T15:30:59Z
2022-02-08T13:32:29Z,42.805,6.029,13.3021,4.60064,2470.287,2022-2-08T15:34:02Z
2022-02-08T13:35:33Z,42.805,6.029,13.3014,4.60074,2470.287,2022-2-08T15:37:06Z
2022-02-08T13:38:36Z,42.805,6.029,13.3010,4.60058,2470.273,2022-2-08T15:40:09Z
2022-02-08T13:41:39Z,42.805,6.029,13.3006,4.60072,2470.273,2022-2-08T15:43:12Z
2022-02-08T13:44:42Z,42.805,6.029,13.3006,4.60056,2470.287,2022-2-08T15:46:15Z
2022-02-08T13:47:45Z,42.805,6.029,13.3009,4.60083,2470.334,2022-2-08T15:49:18Z
2022-02-08T13:50:48Z,42.805,6.029,13.3005,4.60069,2470.297,2022-2-08T15:52:21Z
2022-02-08T13:53:51Z,42.805,6.029,13.3024,4.60074,2470.32,2022-2-08T15:55:24Z
2022-02-08T13:56:54Z,42.805,6.029,13.3008,4.60082,2470.343,2022-2-08T15:58:27Z
2022-02-08T13:59:58Z,42.805,6.029,13.3009,4.60094,2470.297,2022-2-08T16:01:31Z
2022-02-08T14:03:01Z,42.805,6.029,13.3014,4.60070,2470.287,2022-2-08T16:04:34Z
2022-02-08T14:06:04Z,42.805,6.029,13.3009,4.60060,2470.273,2022-2-08T16:07:37Z
2022-02-08T14:09:07Z,42.805,6.029,13.3008,4.60082,2470.334,2022-2-08T16:10:40Z
2022-02-08T14:12:10Z,42.805,6.029,13.3009,4.60054,2470.31,2022-2-08T16:13:43Z
2022-02-08T14:15:13Z,42.805,6.029,13.3012,4.60068,2470.273,2022-2-08T16:16:46Z
2022-02-08T14:18:16Z,42.805,6.029,13.3011,4.60056,2470.273,2022-2-08T16:19:49Z
2022-02-08T14:21:19Z,42.805,6.029,13.3006,4.60072,2470.31,2022-2-08T16:22:52Z
2022-02-08T14:24:23Z,42.805,6.029,13.3016,4.60076,2470.297,2022-2-08T16:25:56Z
2022-02-08T14:27:26Z,42.805,6.029,13.3030,4.60074,2470.287,2022-2-08T16:28:59Z
2022-02-08T14:30:29Z,42.805,6.029,13.3031,4.60084,2470.297,2022-2-08T16:32:02Z
2022-02-08T14:33:32Z,42.805,6.029,13.3013,4.60081,2470.273,2022-2-08T16:35:05Z
2022-02-08T14:36:35Z,42.805,6.029,13.3015,4.60074,2470.287,2022-2-08T16:38:08Z
2022-02-08T14:39:38Z,42.805,6.029,13.3017,4.60069,2470.287,2022-2-08T16:41:11Z
2022-02-08T14:42:41Z,42.805,6.029,13.3014,4.60092,2470.273,2022-2-08T16:44:14Z
2022-02-08T14:45:44Z,42.805,6.029,13.3017,4.60088,2470.273,2022-2-08T16:47:17Z
2022-02-08T14:48:47Z,42.805,6.029,13.3021,4.60060,2470.287,2022-2-08T16:50:20Z
2022-02-08T14:51:51Z,42.805,6.029,13.3011,4.60076,2470.264,2022-2-08T16:53:24Z
2022-02-08T14:54:54Z,42.805,6.029,13.3010,4.60080,2470.273,2022-2-08T16:56:27Z
2022-02-08T14:57:57Z,42.805,6.029,13.3015,4.60094,2470.264,2022-2-08T16:59:30Z
2022-02-08T15:01:00Z,42.805,6.029,13.3022,4.60080,2470.264,2022-2-08T17:02:33Z
2022-02-08T15:04:03Z,42.805,6.029,13.3016,4.60094,2470.273,2022-2-08T17:05:36Z
2022-02-08T15:07:06Z,42.805,6.029,13.3018,4.60054,2470.25,2022-2-08T17:08:39Z
2022-02-08T15:10:09Z,42.805,6.029,13.3027,4.60072,2470.273,2022-2-08T17:11:42Z
2022-02-08T15:13:12Z,42.805,6.029,13.3014,4.60070,2470.287,2022-2-08T17:14:45Z